Location: *
(43.0833°N, 13.0500°E)
Time: 20:36:16
(UTC+00:00)

DMSP B5D1-3 - Pass Details

Date: 15 November 2019
Orbit: 768 x 780 km, 98.5° (Epoch: 10 December)

Event Time Altitude Azimuth Distance (km) Brightness Sun altitude
Exits shadow 18:03:21 37° 11° (NNE) 1,196 5.3 -25.4°
Maximum altitude 18:05:27 86° 285° (WNW) 788 4.4 -25.7°
Drops below altitude 10° 18:10:36 10° 197° (SSW) 2,325 7.2 -26.7°
Sets 18:12:54 0° 197° (SSW) 3,247 8.0 -27.1°
